Time,TemperatureF,DewpointF,PressureIn,WindDirection,WindDirectionDegrees,WindSpeedMPH,WindSpeedGustMPH,Humidity,HourlyPrecipIn,Conditions,Clouds,dailyrainin,SolarRadiationWatts/m^2,SoftwareType,DateUTC
2013-11-13 00:02:00,23.0,7.0,-100.00,WNW,294,2.0,6.0,50,0.00,,,0.00,0.000000,,2013-11-13 07:02:00,
2013-11-13 00:42:00,21.0,7.0,-100.00,NW,313,3.0,5.0,54,0.00,,,0.00,0.000000,,2013-11-13 07:42:00,
2013-11-13 00:52:00,21.0,7.0,-100.00,NW,313,3.0,5.0,54,0.00,,,0.00,0.000000,,2013-11-13 07:52:00,
2013-11-13 01:02:00,21.0,7.0,-100.00,NW,313,3.0,5.0,54,0.00,,,0.00,0.000000,,2013-11-13 08:02:00,
2013-11-13 01:42:00,21.0,6.0,-100.00,NW,313,2.0,6.0,52,0.00,,,0.00,0.000000,,2013-11-13 08:42:00,
2013-11-13 01:52:00,21.0,6.0,-100.00,NW,313,2.0,6.0,52,0.00,,,0.00,0.000000,,2013-11-13 08:52:00,
2013-11-13 02:03:00,21.0,6.0,-100.00,NW,313,2.0,6.0,52,0.00,,,0.00,0.000000,,2013-11-13 09:03:00,
2013-11-13 02:43:00,19.0,5.0,-100.00,WNW,303,3.0,4.0,54,0.00,,,0.00,0.000000,,2013-11-13 09:43:00,
2013-11-13 02:52:00,19.0,5.0,-100.00,WNW,303,3.0,4.0,54,0.00,,,0.00,0.000000,,2013-11-13 09:52:00,
2013-11-13 03:03:00,19.0,5.0,-100.00,WNW,303,3.0,4.0,54,0.00,,,0.00,0.000000,,2013-11-13 10:03:00,
2013-11-13 03:52:00,20.0,5.0,-100.00,NW,308,3.0,6.0,52,0.00,,,0.00,0.000000,,2013-11-13 10:52:00,
2013-11-13 04:02:00,20.0,5.0,-100.00,NW,308,3.0,6.0,52,0.00,,,0.00,0.000000,,2013-11-13 11:02:00,
2013-11-13 08:43:00,29.0,8.0,-100.00,NE,34,2.0,3.0,41,0.00,,,0.00,149.000000,,2013-11-13 15:43:00,
2013-11-13 08:53:00,29.0,8.0,-100.00,NE,34,2.0,3.0,41,0.00,,,0.00,149.000000,,2013-11-13 15:53:00,
2013-11-13 09:03:00,29.0,8.0,-100.00,NE,34,2.0,3.0,41,0.00,,,0.00,149.000000,,2013-11-13 16:03:00,
2013-11-13 09:43:00,38.0,8.0,-100.00,North,350,2.0,6.0,28,0.00,,,0.00,368.000000,,2013-11-13 16:43:00,
2013-11-13 09:53:00,38.0,8.0,-100.00,North,350,2.0,6.0,28,0.00,,,0.00,368.000000,,2013-11-13 16:53:00,
2013-11-13 10:02:00,38.0,8.0,-100.00,North,350,2.0,6.0,28,0.00,,,0.00,368.000000,,2013-11-13 17:02:00,
2013-11-13 10:42:00,46.0,11.0,-100.00,ENE,63,3.0,5.0,24,0.00,,,0.00,528.000000,,2013-11-13 17:42:00,
2013-11-13 10:52:00,46.0,11.0,-100.00,ENE,63,3.0,5.0,24,0.00,,,0.00,528.000000,,2013-11-13 17:52:00,
2013-11-13 11:02:00,46.0,11.0,-100.00,ENE,63,3.0,5.0,24,0.00,,,0.00,528.000000,,2013-11-13 18:02:00,
2013-11-13 11:42:00,48.0,5.0,-100.00,SW,227,3.0,8.0,17,0.00,,,0.00,630.000000,,2013-11-13 18:42:00,
2013-11-13 11:52:00,48.0,5.0,-100.00,SW,227,3.0,8.0,17,0.00,,,0.00,630.000000,,2013-11-13 18:52:00,
2013-11-13 12:02:00,48.0,5.0,-100.00,SW,227,3.0,8.0,17,0.00,,,0.00,630.000000,,2013-11-13 19:02:00,
2013-11-13 12:42:00,51.0,5.0,-100.00,North,355,3.0,10.0,15,0.00,,,0.00,658.000000,,2013-11-13 19:42:00,
2013-11-13 12:52:00,51.0,5.0,-100.00,North,355,3.0,10.0,15,0.00,,,0.00,658.000000,,2013-11-13 19:52:00,
2013-11-13 13:02:00,51.0,5.0,-100.00,North,355,3.0,10.0,15,0.00,,,0.00,658.000000,,2013-11-13 20:02:00,
2013-11-13 13:42:00,49.0,2.0,-100.00,NNW,328,7.0,18.0,14,0.00,,,0.00,621.000000,,2013-11-13 20:42:00,
2013-11-13 13:52:00,49.0,2.0,-100.00,NNW,328,7.0,18.0,14,0.00,,,0.00,621.000000,,2013-11-13 20:52:00,
2013-11-13 14:01:00,49.0,2.0,-100.00,NNW,328,7.0,18.0,14,0.00,,,0.00,621.000000,,2013-11-13 21:01:00,
2013-11-13 14:43:00,47.0,3.0,-100.00,NW,322,5.0,15.0,16,0.00,,,0.00,473.000000,,2013-11-13 21:43:00,
2013-11-13 14:53:00,47.0,3.0,-100.00,NW,322,5.0,15.0,16,0.00,,,0.00,473.000000,,2013-11-13 21:53:00,
2013-11-13 15:03:00,47.0,3.0,-100.00,NW,322,5.0,15.0,16,0.00,,,0.00,473.000000,,2013-11-13 22:03:00,
2013-11-13 15:42:00,45.0,6.0,-100.00,North,356,8.0,14.0,20,0.00,,,0.00,309.000000,,2013-11-13 22:42:00,
2013-11-13 15:53:00,45.0,6.0,-100.00,North,356,8.0,14.0,20,0.00,,,0.00,309.000000,,2013-11-13 22:53:00,
2013-11-13 16:02:00,45.0,6.0,-100.00,North,356,8.0,14.0,20,0.00,,,0.00,309.000000,,2013-11-13 23:02:00,
2013-11-13 16:43:00,42.0,8.0,-100.00,North,354,6.0,16.0,24,0.00,,,0.00,138.000000,,2013-11-13 23:43:00,
2013-11-13 16:53:00,42.0,8.0,-100.00,North,354,6.0,16.0,24,0.00,,,0.00,138.000000,,2013-11-13 23:53:00,
2013-11-13 17:02:00,42.0,8.0,-100.00,North,354,6.0,16.0,24,0.00,,,0.00,138.000000,,2013-11-14 00:02:00,
2013-11-13 17:42:00,39.0,9.0,-100.00,North,351,5.0,12.0,29,0.00,,,0.00,22.000000,,2013-11-14 00:42:00,
2013-11-13 17:52:00,39.0,9.0,-100.00,North,351,5.0,12.0,29,0.00,,,0.00,22.000000,,2013-11-14 00:52:00,
2013-11-13 18:02:00,39.0,9.0,-100.00,North,351,5.0,12.0,29,0.00,,,0.00,22.000000,,2013-11-14 01:02:00,
2013-11-13 18:42:00,36.0,11.0,-100.00,NW,314,3.0,9.0,35,0.00,,,0.00,0.000000,,2013-11-14 01:42:00,
2013-11-13 18:52:00,36.0,11.0,-100.00,NW,314,3.0,9.0,35,0.00,,,0.00,0.000000,,2013-11-14 01:52:00,
2013-11-13 19:01:00,36.0,11.0,-100.00,NW,314,3.0,9.0,35,0.00,,,0.00,0.000000,,2013-11-14 02:01:00,
2013-11-13 19:53:00,35.0,13.0,-100.00,NNW,333,3.0,10.0,40,0.00,,,0.00,0.000000,,2013-11-14 02:53:00,
2013-11-13 20:02:00,35.0,13.0,-100.00,NNW,333,3.0,10.0,40,0.00,,,0.00,0.000000,,2013-11-14 03:02:00,
2013-11-13 20:44:00,33.0,12.0,-100.00,NNW,343,3.0,6.0,42,0.00,,,0.00,0.000000,,2013-11-14 03:44:00,
2013-11-13 20:54:00,33.0,12.0,-100.00,NNW,343,3.0,6.0,42,0.00,,,0.00,0.000000,,2013-11-14 03:54:00,
2013-11-13 21:03:00,33.0,12.0,-100.00,NNW,343,3.0,6.0,42,0.00,,,0.00,0.000000,,2013-11-14 04:03:00,
2013-11-13 21:43:00,32.0,14.0,-100.00,NNW,347,4.0,6.0,47,0.00,,,-99.99,0.000000,,2013-11-14 04:43:00,
2013-11-13 21:54:00,32.0,14.0,-100.00,NNW,347,4.0,6.0,47,0.00,,,-99.99,0.000000,,2013-11-14 04:54:00,
2013-11-13 22:03:00,32.0,14.0,-100.00,NNW,347,4.0,6.0,47,0.00,,,-99.99,0.000000,,2013-11-14 05:03:00,
2013-11-13 22:44:00,30.0,14.0,-100.00,NW,314,3.0,5.0,50,0.00,,,0.00,0.000000,,2013-11-14 05:44:00,
2013-11-13 22:53:00,30.0,14.0,-100.00,NW,314,3.0,5.0,50,0.00,,,0.00,0.000000,,2013-11-14 05:53:00,
2013-11-13 23:03:00,30.0,14.0,-100.00,NW,314,3.0,5.0,50,0.00,,,0.00,0.000000,,2013-11-14 06:03:00,
2013-11-13 23:42:00,30.0,14.0,-100.00,North,352,3.0,6.0,51,0.00,,,0.00,0.000000,,2013-11-14 06:42:00,
2013-11-13 23:52:00,30.0,14.0,-100.00,North,352,3.0,6.0,51,0.00,,,0.00,0.000000,,2013-11-14 06:52:00,